Погода в Туркестане

Погода в Туркестане : погода сейчас, прогноз погоды и архив. Всё, что Вы хотите узнать о погоде в Туркестане!

Хотите узнать прогноз погоды в Туркестане? Тогда Вам сюда: Погода в Туркестане

Поиск расширенной информации на нашем сайте:

Другие новости

Новости СМИ2

Главная страница сайта

Новости сайта

03.07.2017

Напоминаем, что на нашем специализированном сайте Метеоцентр.Азия вы можете получить высокодетализированные автоматические прогнозы погоды по пунктам России, СНГ и мира в авиационном формате (включающие направление и скорость ветра, видимость, явления погоды, количество и форму облачности, нижнюю и верхнюю границу облачности).


Погода в Туркестане - сегодня

Время (UTC), дата Ветер
(°,м/с) 
Видим.   Явления Облачность Т
(°С)
Тd
(°С)
f(%) Тe
(°С)
Pmin
(гПа)
dP
(гПа)
Po
(мм)
O2
(г/м3)
Тmin Tmax R s Состояние
почвы
21 15.10.17 010 (С) н/о    ясно 
+9.3 +3 65 +9  1012.9  -1.1  741  288           
00 16.10.17 040 (СВ) н/о    ясно 
+10.5 +4.3 65 +11  1012.5  -0.3  741  287           
03 16.10.17 050 (СВ) 10 км    8/3 600 м кучево-дожд., средняя, верхняя 
[Cb cap|Ac As|Ci sp]
+10.4 +3.2 61 +11  1012.5  741  287           
06 16.10.17 130 (ЮВ) 10 км    8/3 600 м кучево-дожд., средняя, верхняя 
[Cb cap|Ac As|Ci sp]
+17.7 +4 40 +18  1012.5  0.7  741  280  +8.5         
09 16.10.17 100 (В) 10 км    5/3 600 м кучево-дожд., средняя, верхняя 
[Cb cap|Ac As|Ci sp]
+23.3 +5.1 31 +23  1011.2  -0.8  741  274           
12 16.10.17 100 (В) 10 км    8/3 600 м кучево-дожд., средняя, верхняя 
[Cb cap|Ac lent|Ci sp]
+24.3 +5.1 29 +24  1010.3  -0.4  740  273           
15 16.10.17 080 (В) н/о    5/0 средняя 
[Ac lent]
+16.9 +5.3 46 +17  1011.6  0.4  741  280    +24.9       
18 16.10.17 120 (ЮВ) н/о    5/0 средняя 
[Ac lent]
+16.7 +6.1 50 +17  1011.4  -0.2  741  280    +24.9       
21 16.10.17 110 (В) н/о    3/0 средняя 
[Ac lent]
+13.2 +6.5 64 +13  1011.9  0.1  741  284           
00 17.10.17 090 (В) н/о    ясно 
+10.9 +6.4 74 +11  1011.4  -0.7  740  286           
03 17.10.17 090 (В) 10 км    8/0 средняя, верхняя 
[Ac lent|Ci sp]
+11.9 +5.6 65 +12  1014.4  0.1  740  285           
06 17.10.17 100 (В) 10 км    10/0 верхняя 
[Cs]
+21.9 +6.1 36 +22  1009.2  -1.3  739  275  +8.5         
09 17.10.17 110 (В) 10 км    10/0 верхняя 
[Cs]
+25.9 +5.5 27 +26  1006.4  -2.5  737  270           
12 17.10.17 110 (В) 10 км    10/0 верхняя 
[Cs]
+25.9 +2.9 23 +26  1004.2  -2.1  736  270           
15 17.10.17 100 (В) н/о    9/4 600 м кучево-дожд., средняя 
[Cb cap|Ac As]
+22.7 +1.1 24 +23  1001.5  -2.9  734  273    +27.5       
18 17.10.17 250 (З) н/о    10/10 600 м кучево-дожд. 
[Cb cap]
+19.9 +3.2 33 +20  1003.5  1.7  735  275    +27.5       
21 17.10.17 260 (З) 15-17{19}  н/о  в посл. час ливневой дождь  10/10 600 м кучево-дожд. 
[Cb cap]
+9.5 +6.2 80 +6  1013.1  8.5  741  288           
00 18.10.17 260 (З) 4{17}  н/о  {ливн. осадки}  10/10 600 м кучево-дожд. 
[Cb cap]
+8.3 +4.5 77 +7  1017.9  4.5  745  290           
03 18.10.17 180 (Ю) 10 км    10/6 600 м кучево-дожд., средняя 
[Cb cap|Ac lent]
+7.6 +4 78 +7  1019.6  1.7  746  292         
06 18.10.17 200 (Ю) 10 км  в посл. час ливневой дождь  9/9 600 м кучево-дожд. 
[Cb cap]
+9.7 +5.3 74 +8  1020.7  1.3  747  290  +7.3       
09 18.10.17 240 (ЮЗ) 7{19}  10 км  в посл. час крупа  9/6 600 м кучево-дожд., средняя 
[Cb cap|Ac As]
+9.5 +7.1 85 +8  1019.3  -1.4  746  289           
12 18.10.17 220 (ЮЗ) 10 км  {ливн. осадки}  8/4 600 м кучево-дожд., средняя 
[Cb cap|Ac As]
+10.5 +5 69 +9  1020.4  1.2  747  289           
15 18.10.17 220 (ЮЗ) н/о  в посл. час ливневой дождь  8/4 600 м кучево-дожд., средняя 
[Cb cap|Ac As]
+8.5 +4.6 76 +7  1022.3  1.7  748  292    +13.9     
18 18.10.17 240 (ЮЗ) н/о  {ливн. осадки}  8/3 600 м кучево-дожд., средняя, верхняя 
[Cb cap|Ac lent|Ci sp]
+6.8 +5.5 91 +6  1024.2  1.6  749  294    +13.9     
21 18.10.17 210 (ЮЗ) н/о    6/0 средняя, верхняя 
[Ac lent|Ci sp]
+6.8 +5.5 91 +6  1025.4  1.2  750  294           
Время (UTC), дата Ветер
(°,м/с) 
Видим.   Явления Облачность Т
(°С)
Тd
(°С)
f(%) Тe
(°С)
Pmin
(гПа)
dP
(гПа)
Po
(мм)
O2
(г/м3)
Тmin Tmax R s Состояние
почвы

Для получения пояснительной информации подведите курсор к названию столбца.

ПОГОДА в Туркестане - архив

Всё, что Вы хотите узнать о погоде в Туркестане - удобно и подробно!

Выберите нужную дату (начиная с 1 января 2015* года) и нажмите кнопку "Найти".
Будут отображены архивные сводки погоды по пункту Туркестан, начиная с указанной даты.


Отображать данные в формате CSV (для использования в таблицах Excel)


Внимание! Наш архив погоды предназначен исключительно для личного некоммерческого использования в познавательных целях. Если Вам необходимы официальные справки о состоянии погоды (для производственных, юридических, коммерческих и т.п. целей), обращайтесь в органы Росгидромета.

*Примечание: данная дата относится к архиву по метеостанциям СССР (Россия, СНГ, Балтия).
Архив по метеостанциям Зарубежной Европы и Азии (кроме Китая) хранится 10 дней, по другим регионам земного шара (Китай, Африка, Америка, Австралия, Океания) - 1 день.

Туркестан - район местоположения метеостанции


Название, широта, долгота, высота метеостанции:
Туркестан 43.3°ш. 68.2°д. 207 м над ур. моря [Казахстан]

Дополнительная информация

В oтличие oт бoльшинства пoгoдных сайтoв мы публикуем пoдрoбную метеoинфoрмацию в детальнoм прoфессиoнальнoм фoрмате.

Характеристики температуры и влажнoсти вoздуха измеряются на высoте 2 м в тени вдали oт зданий и деревьев.
Скoрoсть ветра измеряется на высoте 10 м (на урoвне рoста челoвека скoрoсть ветра ниже в 1.5-2 раза). Если метеoстанция нахoдится в гoрoде или в лесу, тo скoрoсть ветра занижена на 2-4 м/с пo сравнению с oткрытым местoм. Скoрoсть ветра над акватoриями крупных рек и oзёр, а также на вершинах хoлмoв на 2-5 м/с выше, чем в oбычных услoвиях.
Атмoсфернoе давление в разных тoчках местнoсти мoжет значительнo oтличаться oт давления на метеoстанции, в зависимoсти oт услoвий рельефа (при пoдъёме на 10 м давление пoнижается примернo на 1 мм рт.ст.).